#timestamp,LO_Frequency,Hit,StdDev 
1582700415.2,286047019.2,N
1582700435.0,286047019.8,N
1582700435.9,286047019.8,N
1582700455.7,286047010.9,N
1582700475.6,286047012.3,N
1582700495.4,286047002.9,N
1582700515.3,286047005.1,N
1582700535.1,286047003.2,N
1582700536.0,286047003.2,N
1582700555.8,286047011.1,N
1582700575.7,286047016.6,N
1582700595.5,286047012.6,N
1582700615.3,286047013.6,N
1582700635.2,286047016.2,N
1582700655.0,286047015.3,N
1582700655.9,286047015.3,N
1582700675.8,286047013.2,N
1582700695.6,286047010.9,N
1582700715.4,286047014.9,N
1582700735.3,286047012.4,N
1582700755.1,286047009.3,N
1582700775.8,286047017.1,N
1582700795.7,286047014.0,N
1582700815.5,286047003.5,N
1582700835.4,286047000.2,N
1582700855.2,286047006.5,N
1582700875.0,286047012.9,N
1582700875.9,286047012.9,N
1582700895.8,286047019.6,Y
1582700915.6,286047011.3,P
1582700935.4,286047013.7,P
1582700955.3,286047021.3,P
1582700975.1,286047022.8,Y
1582700995.9,286047010.1,P
1582701015.7,286047006.4,N
1582701035.5,286046999.4,N
1582701085.4,286046999.2,E
1582701095.3,286046998.9,N
1582701115.2,286047002.1,P
1582701135.0,286047000.4,N
1582701135.9,286047000.4,N
1582701155.7,286046998.6,N
1582701175.6,286046995.1,Y
1582701195.4,286046991.2,P
1582701215.3,286046992.0,N
1582701235.1,286046997.7,N
1582701255.8,286046998.5,N
1582701275.7,286046996.4,N
1582701295.5,286046986.1,Y
1582701315.4,286046990.0,P
1582701335.2,286046986.0,P
1582701355.0,286046977.4,P
1582701355.9,286046977.4,Y
1582701375.8,286046984.6,P
1582701395.6,286046986.7,P
1582701415.5,286046986.7,P
1582701435.3,286046989.8,Y
1582701455.1,286046997.8,P
1582701475.9,286047001.0,N
1582701495.7,286047011.1,N
1582701515.5,286047020.2,N
1582701535.4,286047020.2,N
1582701555.2,286047021.5,N
1582701575.1,286047022.7,N
1582701576.0,286047022.7,N
1582701595.8,286047025.5,N
1582701615.6,286047029.2,N
1582701635.5,286047026.9,N
1582701655.3,286047033.2,N
1582701675.1,286047032.5,N
1582701695.9,286047027.0,N
1582701715.7,286047025.4,N
1582701735.6,286047024.8,N
1582701755.4,286047027.3,N
1582701775.2,286047030.3,N
1582701795.1,286047029.8,N
1582701796.0,286047029.8,N
1582701815.8,286047023.9,N
1582701835.6,286047032.0,N
1582701855.5,286047036.1,Y
1582701875.3,286047011.4,P
1582701895.2,286047013.8,N
1582701915.9,286047011.1,N
1582701935.7,286047012.4,N
1582701955.6,286047017.6,Y
1582701975.4,286047002.1,P
1582701995.2,286047003.9,N
1582702015.1,286047001.9,N
1582702016.0,286047001.9,N
1582702035.8,286046998.7,N
1582702055.7,286047002.6,N
1582702075.5,286047003.2,N
1582702095.3,286046998.7,N
1582702115.2,286047002.1,N
1582702135.0,286047001.8,N
1582702135.9,286047001.8,N
1582702155.8,286047002.5,N
1582702175.6,286047000.7,N
1582702195.4,286046996.8,N
1582702215.3,286046995.0,N
1582702235.1,286046996.5,N
1582702255.8,286046997.8,N
1582702275.7,286046995.0,N
1582702295.5,286046998.8,N
1582702315.4,286046999.4,N
1582702335.2,286046996.9,N
1582702355.0,286046993.1,N
1582702355.9,286046993.1,N
1582702375.8,286046987.3,N
1582702395.6,286046986.4,N
1582702415.5,286046987.0,N
1582702435.3,286046988.9,N
1582702455.1,286046994.2,N
1582702475.9,286046996.3,N
1582702495.7,286046992.4,N
1582702515.5,286046990.7,N
1582702535.4,286046991.2,N
1582702555.2,286046990.1,N
1582702575.1,286046995.8,N
1582702576.0,286046995.8,N
1582702595.8,286046988.9,N
1582702615.6,286046986.0,N
1582702635.5,286046986.2,N
1582702655.3,286046986.9,N
1582702675.1,286046979.4,Y
1582702695.9,286046975.0,P
1582702715.7,286046972.9,N
1582702735.6,286046982.3,N
1582702755.4,286046988.9,N
1582702775.2,286046978.9,N
1582702795.1,286046980.2,N
1582702796.0,286046980.2,N
1582702815.8,286046980.5,Y
1582702835.6,286047009.4,P
1582702855.5,286047009.7,N
1582702875.3,286047007.3,N
1582702895.2,286047007.7,N
1582702915.9,286047003.4,N
1582702935.7,286047006.9,N
1582702955.6,286047013.7,N
1582702975.4,286047018.3,N
1582702995.2,286047022.9,N
1582703015.1,286047023.6,N
1582703016.0,286047023.6,N
1582703035.8,286047022.5,N
1582703055.7,286047020.1,N
1582703075.5,286047011.4,N
1582703095.3,286047010.1,N
1582703115.2,286047004.5,N
1582703135.0,286047005.9,N
1582703135.9,286047005.9,N
1582703155.7,286047007.7,N
1582703175.6,286047013.9,N
1582703195.4,286047020.2,N
1582703215.3,286047011.8,N
1582703235.1,286047015.1,N
1582703236.0,286047015.1,N
1582703255.8,286047010.7,N
1582703275.7,286046998.1,N
1582703295.5,286046989.3,N
1582703315.3,286046993.4,N
1582703335.2,286047002.0,N
1582703355.0,286047004.4,N
1582703355.9,286047004.4,N
1582703375.8,286047000.5,N
1582703395.6,286046997.4,N
1582703415.4,286046994.4,N
1582703435.3,286046995.0,N
1582703455.1,286046993.2,N
1582703475.9,286046988.1,N
1582703495.7,286046989.2,N
1582703515.5,286046992.5,N
1582703535.4,286046993.2,N
1582703555.2,286046996.2,N
1582703575.0,286047006.0,N
1582703575.9,286047006.0,N
1582703595.8,286047009.1,N
1582703615.6,286047010.1,N
1582703635.5,286047020.3,N
1582703655.3,286047020.3,N
1582703675.1,286047003.5,N
1582703695.9,286046996.8,N
1582703715.7,286047001.8,N
1582703735.5,286047002.8,N
1582703755.4,286047001.4,N
1582703775.2,286047012.3,N
1582703795.1,286047013.0,N
1582703796.0,286047013.0,N
1582703815.8,286047019.2,N
1582703835.6,286047012.7,N
1582703855.5,286047007.8,N
1582703875.3,286047003.9,N
1582703895.1,286047008.0,N
1582703915.9,286047010.5,N
1582703935.7,286047006.3,N
1582703955.6,286047000.4,N
1582703975.4,286046995.3,N
1582703995.2,286047004.9,N
